Weather History for Kaneohe MCBH, HI

Change the Weather History Date:

Wednesday, September 18, 2013

  Actual Average Record
Temperature  
Mean Temperature 83 °F -  
Max Temperature 89 °F 81 °F 89 °F (2013)
Min Temperature 77 °F 72 °F 73 °F (1997)
Cooling Degree Days 18    
Growing Degree Days 33 (Base 50)    
Moisture  
Dew Point 70 °F    
Average Humidity 70    
Maximum Humidity 79    
Minimum Humidity 52    
Precipitation  
Precipitation 0.00 in - - ()
Sea Level Pressure  
Sea Level Pressure 29.98 in    
Wind  
Wind Speed 8 mph (ENE)    
Max Wind Speed 13 mph    
Max Gust Speed 22 mph    
Visibility 9 miles    
Events      
Averages and records for this station are not official NWS values.
T = Trace of Precipitation, MM = Missing Value Source: NWS Daily Summary

Daily Weather History Graph

Daily Weather History Graph

Search for Another Location

Airport:

Trip Planner

Search our weather history database for the weather conditions in past years. The results will help you decide how hot, cold, wet, or windy it might be!

Date:

Astronomy

Sep. 18, 2013 Rise Set
Actual Time 6:18 AM HST 6:30 PM HST
Civil Twilight 5:56 AM HST 6:52 PM HST
Nautical Twilight 5:30 AM HST 7:18 PM HST
Astronomical Twilight 5:04 AM HST 7:44 PM HST
Moon 6:04 PM HST (9/18) 5:34 AM HST (9/18)
Length of Visible Light 12h 56m
Length of Day
12h 11m
Full, 100% of the Moon is Illuminated
Sep 18
Full
Sep 19
Full
Sep 26
Last Quarter
Oct 4
New
Oct 11
First Quarter

Hourly Weather History & Observations

Time (HST) Temp. Heat Index Dew Point Humidity Pressure Visibility Wind Dir Wind Speed Gust Speed Precip Events Conditions
12:29 AM 78.8 °F - 69.8 °F 74% 30.01 in 6.2 mi ENE 8.1 mph - N/A   Mostly Cloudy
12:57 AM 77.4 °F - 69.1 °F 76% 29.99 in 10.0 mi East 5.8 mph - N/A   Mostly Cloudy
1:57 AM 77.4 °F - 70.0 °F 78% 29.98 in 10.0 mi East 8.1 mph - N/A   Overcast
2:18 AM 77.0 °F - 69.8 °F 78% 29.99 in 6.2 mi East 8.1 mph - N/A   Mostly Cloudy
2:43 AM 78.8 °F - 69.8 °F 74% 29.98 in 6.2 mi East 6.9 mph - N/A   Mostly Cloudy
2:57 AM 78.1 °F - 70.0 °F 76% 29.96 in 10.0 mi East 6.9 mph - N/A   Mostly Cloudy
3:07 AM 78.8 °F - 69.8 °F 74% 29.97 in 6.2 mi Variable 5.8 mph - N/A   Scattered Clouds
3:57 AM 77.4 °F - 69.1 °F 76% 29.96 in 10.0 mi ENE 4.6 mph - N/A   Mostly Cloudy
4:57 AM 77.4 °F - 69.1 °F 76% 29.96 in 10.0 mi ENE 3.5 mph - N/A   Mostly Cloudy
5:19 AM 77.0 °F - 68.0 °F 74% 29.97 in 6.2 mi East 6.9 mph - N/A   Mostly Cloudy
5:57 AM 77.0 °F - 68.0 °F 74% 29.97 in 10.0 mi Variable 5.8 mph - N/A   Overcast
6:36 AM 78.8 °F - 69.8 °F 74% 29.99 in 6.2 mi East 4.6 mph - N/A   Overcast
6:57 AM 78.6 °F - 69.1 °F 72% 29.98 in 10.0 mi East 4.6 mph - N/A   Overcast
7:10 AM 78.8 °F - 69.8 °F 74% 29.99 in 6.2 mi East 10.4 mph 17.3 mph N/A   Overcast
7:21 AM 78.8 °F - 69.8 °F 74% 30.00 in 6.2 mi East 8.1 mph 17.3 mph N/A   Overcast
7:57 AM 79.5 °F - 70.0 °F 72% 30.00 in 10.0 mi East 10.4 mph 18.4 mph N/A   Overcast
8:57 AM 79.5 °F - 69.1 °F 70% 30.01 in 10.0 mi East 10.4 mph 16.1 mph 0.00 in   Overcast
9:28 AM 80.6 °F 83.9 °F 69.8 °F 70% 30.03 in 6.2 mi East 8.1 mph 18.4 mph N/A   Scattered Clouds
9:57 AM 82.4 °F 85.8 °F 69.1 °F 64% 30.01 in 10.0 mi East 10.4 mph 18.4 mph N/A   Scattered Clouds
10:57 AM 84.2 °F 87.9 °F 69.1 °F 60% 30.01 in 10.0 mi East 10.4 mph 18.4 mph N/A   Partly Cloudy
11:57 AM 86.0 °F 90.1 °F 69.1 °F 57% 30.00 in 10.0 mi East 9.2 mph 21.9 mph N/A   Partly Cloudy
12:57 PM 86.0 °F 90.7 °F 70.0 °F 59% 29.98 in 10.0 mi NE 11.5 mph 17.3 mph N/A   Scattered Clouds
1:57 PM 87.8 °F 93.4 °F 71.1 °F 57% 29.96 in 10.0 mi ENE 10.4 mph 18.4 mph N/A   Scattered Clouds
2:57 PM 87.8 °F 92.6 °F 70.0 °F 55% 29.96 in 10.0 mi ENE 9.2 mph - N/A   Clear
3:57 PM 89.6 °F 94.7 °F 70.0 °F 52% 29.95 in 10.0 mi ENE 10.4 mph - N/A   Partly Cloudy
4:57 PM 84.2 °F 87.9 °F 69.1 °F 60% 29.95 in 10.0 mi ENE 8.1 mph - N/A   Scattered Clouds
5:57 PM 84.2 °F 87.9 °F 69.1 °F 60% 29.96 in 10.0 mi ENE 6.9 mph - N/A   Scattered Clouds
6:57 PM 80.6 °F 83.9 °F 70.0 °F 70% 29.97 in 10.0 mi ENE 8.1 mph - N/A   Scattered Clouds
7:57 PM 80.6 °F 84.4 °F 71.1 °F 73% 29.98 in 10.0 mi ENE 10.4 mph - N/A   Scattered Clouds
8:57 PM 80.6 °F 83.6 °F 69.1 °F 68% 30.00 in 10.0 mi ENE 9.2 mph - N/A   Scattered Clouds
9:57 PM 77.0 °F - 70.0 °F 79% 30.01 in 10.0 mi East 10.4 mph 16.1 mph N/A   Scattered Clouds
10:57 PM 77.0 °F - 69.1 °F 76% 30.00 in 10.0 mi ENE 10.4 mph 18.4 mph N/A   Partly Cloudy
11:57 PM 77.0 °F - 69.1 °F 76% 29.99 in 10.0 mi East 12.7 mph 17.3 mph N/A   Scattered Clouds